When you browse on this site, cookies collect data to enhance your experience and personalize the content and advertising you see.
Visit our Privacy Policy to learn more. By continuing to use the site, you agree to this use of cookies and data.
  • In Portugal
  • List of Countries
  • For 7 days
  • Water Temperature
  • Weather Map
  • Weather Widgets
  • user-avatar
    Login

    Hourly Weather Sherpur

    Today, 24 October, Thursday

    Time Temperature Precipitation Wind Pressure Humidity
    00:00 +12°C° 0 mm 1 mps 609 mmHg 41%
    01:00 +10°C° 0 mm 0 mps 609 mmHg 42%
    02:00 +10°C° 0 mm 0 mps 609 mmHg 43%
    03:00 +9°C° 0 mm 0 mps 609 mmHg 43%
    04:00 +9°C° 0 mm 0 mps 608 mmHg 43%
    05:00 +8°C° 0 mm 0 mps 608 mmHg 42%
    06:00 +9°C° 0 mm 0 mps 609 mmHg 39%
    07:00 +10°C° 0 mm 0 mps 610 mmHg 37%
    08:00 +11°C° 0 mm 0 mps 611 mmHg 34%
    09:00 +12°C° 0 mm 0 mps 611 mmHg 30%
    10:00 +14°C° 0 mm 1 mps 611 mmHg 27%
    11:00 +16°C° 0 mm 1 mps 611 mmHg 24%
    12:00 +16°C° 0 mm 1 mps 611 mmHg 23%
    13:00 +18°C° 0 mm 1 mps 611 mmHg 21%
    14:00 +19°C° 0 mm 1 mps 611 mmHg 20%
    15:00 +18°C° 0 mm 1 mps 611 mmHg 21%
    16:00 +17°C° 0 mm 2 mps 611 mmHg 21%
    17:00 +17°C° 0 mm 2 mps 610 mmHg 22%
    18:00 +16°C° 0 mm 1 mps 611 mmHg 25%
    19:00 +15°C° 0 mm 1 mps 611 mmHg 29%
    20:00 +14°C° 0 mm 1 mps 611 mmHg 32%
    21:00 +14°C° 0 mm 1 mps 610 mmHg 34%
    22:00 +12°C° 0 mm 0 mps 610 mmHg 36%
    23:00 +11°C° 0 mm 0 mps 610 mmHg 37%

    Tomorrow, 25 October, Friday

    Time Temperature Precipitation Wind Pressure Humidity
    00:00 +11°C° 0 mm 0 mps 610 mmHg 38%
    01:00 +10°C° 0 mm 0 mps 609 mmHg 39%
    02:00 +10°C° 0 mm 0 mps 609 mmHg 39%
    03:00 +9°C° 0 mm 0 mps 609 mmHg 40%
    04:00 +9°C° 0 mm 0 mps 609 mmHg 40%
    05:00 +9°C° 0 mm 0 mps 609 mmHg 40%
    06:00 +10°C° 0 mm 0 mps 609 mmHg 38%
    07:00 +11°C° 0 mm 0 mps 610 mmHg 36%
    08:00 +12°C° 0 mm 0 mps 611 mmHg 34%
    09:00 +13°C° 0 mm 0 mps 611 mmHg 30%
    10:00 +15°C° 0 mm 1 mps 611 mmHg 26%
    11:00 +16°C° 0 mm 1 mps 612 mmHg 23%
    12:00 +18°C° 0 mm 1 mps 611 mmHg 21%
    13:00 +18°C° 0 mm 1 mps 611 mmHg 20%
    14:00 +19°C° 0 mm 1 mps 611 mmHg 19%
    15:00 +19°C° 0 mm 1 mps 611 mmHg 20%
    16:00 +19°C° 0 mm 1 mps 611 mmHg 21%
    17:00 +18°C° 0 mm 2 mps 611 mmHg 22%
    18:00 +18°C° 0 mm 1 mps 611 mmHg 26%
    19:00 +16°C° 0 mm 1 mps 611 mmHg 30%
    20:00 +15°C° 0 mm 1 mps 611 mmHg 34%
    21:00 +14°C° 0 mm 1 mps 611 mmHg 36%
    22:00 +12°C° 0 mm 0 mps 610 mmHg 38%
    23:00 +12°C° 0 mm 0 mps 610 mmHg 40%

    Day after tomorrow, 26 October, Saturday

    Time Temperature Precipitation Wind Pressure Humidity
    00:00 +11°C° 0 mm 0 mps 610 mmHg 41%
    01:00 +11°C° 0 mm 0 mps 610 mmHg 42%
    02:00 +10°C° 0 mm 0 mps 609 mmHg 44%
    03:00 +10°C° 0 mm 0 mps 609 mmHg 45%
    04:00 +9°C° 0 mm 0 mps 609 mmHg 45%
    05:00 +9°C° 0 mm 0 mps 609 mmHg 46%
    06:00 +10°C° 0 mm 0 mps 610 mmHg 44%
    07:00 +11°C° 0 mm 0 mps 611 mmHg 41%
    08:00 +12°C° 0 mm 0 mps 612 mmHg 39%
    09:00 +13°C° 0 mm 0 mps 612 mmHg 36%
    10:00 +14°C° 0 mm 0 mps 612 mmHg 34%
    11:00 +18°C° 0 mm 1 mps 613 mmHg 31%
    12:00 +18°C° 0 mm 1 mps 612 mmHg 30%
    13:00 +19°C° 0 mm 1 mps 612 mmHg 28%
    14:00 +20°C° 0 mm 1 mps 612 mmHg 26%
    15:00 +18°C° 0 mm 2 mps 612 mmHg 27%
    16:00 +18°C° 0 mm 2 mps 612 mmHg 28%
    17:00 +18°C° 0 mm 2 mps 612 mmHg 29%
    18:00 +17°C° 0 mm 2 mps 612 mmHg 34%
    19:00 +16°C° 0 mm 1 mps 612 mmHg 39%
    20:00 +15°C° 0 mm 1 mps 612 mmHg 43%
    21:00 +14°C° 0 mm 1 mps 612 mmHg 45%
    22:00 +14°C° 0 mm 1 mps 611 mmHg 47%
    23:00 +12°C° 0 mm 0 mps 611 mmHg 49%

    , 27 October, Sunday

    Time Temperature Precipitation Wind Pressure Humidity
    00:00 +12°C° 0 mm 0 mps 611 mmHg 51%
    01:00 +11°C° 0 mm 0 mps 611 mmHg 53%
    02:00 +11°C° 0 mm 0 mps 610 mmHg 54%
    03:00 +10°C° 0 mm 0 mps 610 mmHg 56%
    04:00 +10°C° 0 mm 0 mps 610 mmHg 57%
    05:00 +10°C° 0 mm 0 mps 610 mmHg 59%
    06:00 +11°C° 0 mm 0 mps 610 mmHg 56%
    07:00 +12°C° 0 mm 0 mps 611 mmHg 53%
    08:00 +12°C° 0 mm 0 mps 612 mmHg 50%
    09:00 +13°C° 0 mm 0 mps 612 mmHg 46%
    10:00 +14°C° 0 mm 0 mps 612 mmHg 43%
    11:00 +16°C° 0 mm 1 mps 612 mmHg 39%
    12:00 +18°C° 0 mm 1 mps 612 mmHg 36%
    13:00 +19°C° 0 mm 1 mps 612 mmHg 34%
    14:00 +19°C° 0 mm 1 mps 611 mmHg 31%
    15:00 +19°C° 0 mm 1 mps 611 mmHg 33%
    16:00 +18°C° 0 mm 2 mps 612 mmHg 34%
    17:00 +17°C° 0 mm 2 mps 612 mmHg 36%
    18:00 +17°C° 0.1 mm 2 mps 612 mmHg 40%
    19:00 +16°C° 0.1 mm 1 mps 612 mmHg 43%
    20:00 +15°C° 0.1 mm 1 mps 612 mmHg 47%
    21:00 +15°C° 0 mm 1 mps 612 mmHg 49%
    22:00 +14°C° 0 mm 1 mps 612 mmHg 52%
    23:00 +14°C° 0 mm 1 mps 611 mmHg 55%

    27 October, Sunday

    Time Temperature Precipitation Wind Pressure Humidity
    00:00 +12°C° 0 mm 0 mps 611 mmHg 51%
    01:00 +11°C° 0 mm 0 mps 611 mmHg 53%
    02:00 +11°C° 0 mm 0 mps 610 mmHg 54%
    03:00 +10°C° 0 mm 0 mps 610 mmHg 56%
    04:00 +10°C° 0 mm 0 mps 610 mmHg 57%
    05:00 +10°C° 0 mm 0 mps 610 mmHg 59%
    06:00 +11°C° 0 mm 0 mps 610 mmHg 56%
    07:00 +12°C° 0 mm 0 mps 611 mmHg 53%
    08:00 +12°C° 0 mm 0 mps 612 mmHg 50%
    09:00 +13°C° 0 mm 0 mps 612 mmHg 46%
    10:00 +14°C° 0 mm 0 mps 612 mmHg 43%
    11:00 +16°C° 0 mm 1 mps 612 mmHg 39%
    12:00 +18°C° 0 mm 1 mps 612 mmHg 36%
    13:00 +19°C° 0 mm 1 mps 612 mmHg 34%
    14:00 +19°C° 0 mm 1 mps 611 mmHg 31%
    15:00 +19°C° 0 mm 1 mps 611 mmHg 33%
    16:00 +18°C° 0 mm 2 mps 612 mmHg 34%
    17:00 +17°C° 0 mm 2 mps 612 mmHg 36%
    18:00 +17°C° 0.1 mm 2 mps 612 mmHg 40%
    19:00 +16°C° 0.1 mm 1 mps 612 mmHg 43%
    20:00 +15°C° 0.1 mm 1 mps 612 mmHg 47%
    21:00 +15°C° 0 mm 1 mps 612 mmHg 49%
    22:00 +14°C° 0 mm 1 mps 612 mmHg 52%
    23:00 +14°C° 0 mm 1 mps 611 mmHg 55%

    28 October, Monday

    Time Temperature Precipitation Wind Pressure Humidity
    00:00 +13°C° 0 mm 1 mps 611 mmHg 57%
    01:00 +12°C° 0 mm 0 mps 610 mmHg 59%
    02:00 +11°C° 0 mm 0 mps 610 mmHg 61%
    03:00 +11°C° 0 mm 0 mps 610 mmHg 61%
    04:00 +10°C° 0 mm 0 mps 609 mmHg 62%
    05:00 +10°C° 0 mm 0 mps 609 mmHg 63%
    06:00 +11°C° 0 mm 0 mps 610 mmHg 59%
    07:00 +12°C° 0 mm 0 mps 610 mmHg 56%
    08:00 +13°C° 0 mm 1 mps 611 mmHg 52%
    09:00 +15°C° 0 mm 1 mps 611 mmHg 48%
    10:00 +16°C° 0 mm 1 mps 612 mmHg 44%
    11:00 +18°C° 0 mm 1 mps 612 mmHg 40%
    12:00 +18°C° 0 mm 1 mps 612 mmHg 38%
    13:00 +19°C° 0 mm 1 mps 612 mmHg 36%
    14:00 +20°C° 0 mm 1 mps 611 mmHg 34%
    15:00 +20°C° 0 mm 1 mps 612 mmHg 35%
    16:00 +19°C° 0 mm 1 mps 612 mmHg 35%
    17:00 +19°C° 0 mm 1 mps 612 mmHg 36%
    18:00 +17°C° 0.4 mm 2 mps 612 mmHg 46%
    19:00 +15°C° 0.4 mm 2 mps 612 mmHg 57%
    20:00 +13°C° 0.4 mm 3 mps 611 mmHg 67%
    21:00 +14°C° 0.1 mm 2 mps 612 mmHg 68%
    22:00 +13°C° 0.1 mm 1 mps 612 mmHg 68%
    23:00 +12°C° 0.1 mm 0 mps 612 mmHg 69%

    29 October, Tuesday

    Time Temperature Precipitation Wind Pressure Humidity
    00:00 +12°C° 0 mm 0 mps 612 mmHg 70%
    01:00 +12°C° 0 mm 0 mps 612 mmHg 72%
    02:00 +11°C° 0 mm 0 mps 611 mmHg 73%
    03:00 +11°C° 0 mm 0 mps 611 mmHg 74%
    04:00 +11°C° 0 mm 0 mps 611 mmHg 75%
    05:00 +10°C° 0 mm 0 mps 611 mmHg 77%
    06:00 +11°C° 0 mm 0 mps 611 mmHg 72%
    07:00 +11°C° 0 mm 0 mps 612 mmHg 68%
    08:00 +12°C° 0 mm 0 mps 612 mmHg 64%
    09:00 +14°C° 0 mm 1 mps 613 mmHg 59%
    10:00 +15°C° 0 mm 1 mps 613 mmHg 55%
    11:00 +16°C° 0 mm 1 mps 613 mmHg 50%
    12:00 +18°C° 0.1 mm 1 mps 613 mmHg 46%
    13:00 +19°C° 0.1 mm 1 mps 613 mmHg 43%
    14:00 +20°C° 0.1 mm 1 mps 613 mmHg 39%
    15:00 +20°C° 0.2 mm 1 mps 612 mmHg 39%
    16:00 +20°C° 0.2 mm 1 mps 612 mmHg 40%
    17:00 +20°C° 0.2 mm 1 mps 612 mmHg 40%
    18:00 +19°C° 0.5 mm 1 mps 612 mmHg 46%
    19:00 +18°C° 0.5 mm 1 mps 612 mmHg 52%
    20:00 +15°C° 0.5 mm 0 mps 612 mmHg 58%
    21:00 +15°C° 0.2 mm 1 mps 612 mmHg 59%
    22:00 +15°C° 0.2 mm 1 mps 612 mmHg 60%
    23:00 +15°C° 0.2 mm 1 mps 612 mmHg 61%
    Show more